Home > Weather > Sochi > Past weeks

Flag for Russia Past Weather in Sochi, Russia — Yesterday and Last 2 Weeks

Now
88 °F

Clear.


Feels Like: 90 °F
Forecast: 70 / 84 °F
Wind: 8 mph from Northwest

Location: Adler

Current Time: Jun 27, 2016 at 5:54:11 PM

Latest Report: Jun 27, 2016 at 5:00 PM


Visibility: N/A

Pressure: 29.65 "Hg

Humidity: 49%

Dew Point: 66 °F

Location of SochiLocation

Past Weather in Sochi — Graph

°F

Sochi Temperature Yesterday

Maximum temperature yesterday: 88 °F (at 2:00 PM)
Minimum temperature yesterday: 70 °F (at 4:30 AM)
Average temperature yesterday: 80 °F

High & Low Weather Summary for the Past Weeks

 TemperatureHumidityPressure
High91 °F (Jun 14, 1:00 PM)89% (Jun 19, 9:00 PM)30.09 "Hg (Jun 19, 9:00 PM)
Low59 °F (Jun 13, 2:00 AM)17% (Jun 14, 1:30 PM)29.59 "Hg (Jun 15, 8:30 AM)
Average76 °F68%29.91 "Hg
* Reported Jun 12 4:00 PM — Jun 27 4:00 PM, Sochi, Weather by CustomWeather, © 2016

Note: Actual official high and low records may vary slightly from our data, if they occured in-between our weather recording intervals... More about our weather records

Advertising

Sochi Weather History for the Previous 24 Hours

Scroll right to see more
 ConditionsComfort  
Time TempWeatherWind HumidityBarometerVisibility
4:00 PM
Mon, Jun 27
88 °FClear.8 mph49%29.68 "HgN/A
3:30 PM88 °FClear.8 mph49%29.68 "HgN/A
3:00 PM88 °FClear.8 mph49%29.68 "HgN/A
2:30 PM88 °FClear.8 mph49%29.68 "HgN/A
2:00 PM88 °FClear.8 mph49%29.71 "HgN/A
1:30 PM88 °FClear.8 mph49%29.68 "HgN/A
1:00 PM88 °FClear.8 mph46%29.68 "HgN/A
12:30 PM88 °FClear.8 mph49%29.71 "HgN/A
12:00 PM88 °FClear.6 mph43%29.71 "HgN/A
11:30 AM90 °FClear.6 mph43%29.71 "HgN/A
11:00 AM88 °FClear.6 mph46%29.71 "HgN/A
10:30 AM88 °FClear.6 mph46%29.71 "HgN/A
10:00 AM88 °FClear.8 mph46%29.74 "HgN/A
9:30 AM88 °FClear.6 mph46%29.74 "HgN/A
9:00 AM88 °FClear.1 mph43%29.74 "HgN/A
8:30 AM86 °FClear.3 mph49%29.74 "HgN/A
8:00 AM82 °FClear.8 mph55%29.74 "HgN/A
7:30 AM81 °FClear.8 mph58%29.74 "HgN/A
7:00 AM79 °FClear.10 mph58%29.74 "HgN/A
6:30 AM77 °FClear.10 mph61%29.74 "HgN/A
6:00 AM75 °FClear.10 mph65%29.74 "HgN/A
5:30 AM75 °FClear.8 mph65%29.74 "HgN/A
5:00 AM75 °FClear.8 mph61%29.74 "HgN/A
4:30 AM75 °FClear.8 mph65%29.74 "HgN/A
4:00 AM75 °FClear.8 mph65%29.74 "HgN/A
3:30 AM75 °FClear.10 mph65%29.74 "HgN/A
3:00 AM73 °FClear.6 mph69%29.74 "HgN/A
2:30 AM75 °FClear.3 mph65%29.77 "HgN/A
2:00 AM77 °FClear.6 mph57%29.77 "HgN/A
1:30 AM77 °FClear.10 mph61%29.77 "HgN/A
1:00 AM79 °FClear.10 mph58%29.77 "HgN/A
12:30 AM77 °FClear.10 mph61%29.77 "HgN/A
12:00 AM77 °FClear.8 mph61%29.77 "HgN/A
11:30 PM
Sun, Jun 26
77 °FClear.8 mph65%29.77 "HgN/A
11:00 PM79 °FClear.8 mph61%29.77 "HgN/A
10:30 PM79 °FClear.10 mph61%29.77 "HgN/A
10:00 PM79 °FClear.8 mph65%29.77 "HgN/A
9:00 PM77 °FClear.3 mph83%29.77 "HgN/A
8:00 PM81 °FClear.3 mph79%29.77 "HgN/A
7:30 PM82 °FClear.6 mph70%29.80 "HgN/A
7:00 PM82 °FClear.6 mph70%29.80 "HgN/A
6:30 PM84 °FClear.8 mph62%29.80 "HgN/A
5:30 PM86 °FClear.8 mph55%29.80 "HgN/A
5:00 PM86 °FClear.6 mph62%29.80 "HgN/A
Weather by CustomWeather, © 2016

See weather overviewHow to use our weather pages